Theta_e
305 308 312 314 314 314 313 313 313 312 312 312 313 314 315 316 315 320 325 321 320 318 316 323 321 324 324 323 322 321 322 326 329 343 342 336 338 337 336 336 339 342 347 343 341
304 306 311 313 314 314 313 313 313 312 312 312 313 314 315 316 318 323 320 328 322 318 316 323 320 322 321 322 321 320 322 327 330 339 339 338 338 339 338 344 348 348 346 343 341
303 305 310 313 314 314 314 313 313 313 311 313 313 314 315 316 327 329 330 327 320 317 314 322 322 321 320 320 320 321 323 326 328 331 339 340 338 339 340 341 348 349 347 344 342
302 304 308 312 314 314 314 313 313 313 311 313 314 315 315 323 329 322 318 317 316 315 318 322 322 320 319 320 320 321 323 327 329 331 331 339 337 342 341 339 347 346 344 343 342
302 303 306 311 314 314 314 313 313 313 311 313 315 315 316 324 329 323 314 313 313 315 320 322 322 320 319 320 320 321 323 326 326 328 329 339 342 338 339 339 344 344 342 341 338
302 302 305 310 314 314 314 314 313 313 312 313 315 315 323 325 326 319 317 313 313 322 324 323 321 319 319 319 319 321 323 325 325 328 330 332 342 340 338 337 340 342 340 340 339
301 302 304 309 313 314 314 314 313 313 314 316 315 316 322 320 325 319 319 316 318 321 320 321 321 318 319 318 320 322 322 323 325 328 330 330 336 341 338 336 338 339 339 339 338
301 301 303 308 313 314 314 314 313 313 314 317 315 319 323 318 323 322 321 319 320 320 320 320 321 317 320 319 321 321 322 324 324 326 329 329 333 341 340 338 336 337 338 337 336
301 301 303 307 313 314 314 314 314 316 318 317 316 322 322 322 323 324 323 323 321 321 321 320 320 321 321 320 319 321 321 323 324 325 327 331 339 342 343 342 341 337 336 335 334
301 301 302 307 313 314 314 313 317 319 320 320 321 323 324 325 324 323 326 326 324 320 319 320 318 319 318 318 319 321 323 322 323 325 327 330 333 346 341 340 342 341 336 335 335
301 301 302 307 313 314 314 313 316 321 316 317 322 323 321 324 325 324 327 325 322 318 317 317 317 317 318 318 320 322 322 322 324 326 332 330 334 345 341 345 347 346 337 336 335
301 301 302 307 313 314 314 316 317 315 313 315 316 318 319 320 325 326 327 322 321 317 317 318 317 318 320 320 320 320 321 320 323 326 330 333 333 342 343 344 343 344 338 337 337
302 301 302 308 314 314 315 317 318 315 315 318 318 318 318 320 322 323 324 322 322 319 317 317 320 321 322 322 322 320 321 322 324 325 327 332 334 336 340 340 339 340 339 338 337
302 301 302 311 315 317 319 321 318 316 319 321 321 319 319 320 322 322 325 324 323 321 321 319 321 323 323 323 324 324 324 324 323 323 324 328 327 331 331 333 340 336 338 339 339
303 301 302 312 315 316 320 319 318 317 328 327 321 322 319 319 321 321 323 324 325 324 323 322 323 323 325 325 325 324 324 324 323 320 321 321 326 325 328 330 330 335 336 334 335
304 301 303 313 315 314 315 319 317 318 326 326 322 319 318 319 320 320 322 324 325 325 326 324 325 324 323 324 323 325 324 324 323 319 320 321 323 321 328 329 331 334 332 335 332
305 302 306 314 319 320 318 318 318 319 323 323 322 319 319 319 319 320 323 323 323 326 327 327 325 324 323 322 322 323 322 323 323 321 323 322 323 322 324 325 328 331 329 327 328
306 304 305 311 314 317 318 319 322 319 317 322 325 322 320 319 319 321 323 324 324 325 326 328 327 324 322 322 322 321 322 324 331 331 328 327 329 326 325 325 325 326 326 327 325
307 307 311 309 314 317 320 321 320 319 321 322 323 322 320 320 320 321 323 324 324 324 326 329 330 328 324 323 322 322 324 323 325 326 327 326 328 331 328 326 326 326 326 324 330
310 312 312 312 314 319 322 322 321 319 319 320 324 324 321 320 319 323 325 326 326 325 324 326 328 326 324 323 323 322 324 324 326 330 331 328 330 333 330 331 329 328 337 339 343
314 317 313 311 318 321 323 321 320 319 320 321 323 326 328 329 320 322 324 324 325 326 323 325 328 331 326 324 324 323 321 324 325 328 328 331 333 330 329 334 337 342 347 346 344
316 318 318 316 320 322 321 321 318 320 319 320 321 325 327 330 329 324 324 325 325 325 325 327 330 333 331 328 325 325 324 328 330 331 333 335 336 333 334 341 342 347 349 340 332
318 317 319 318 323 322 321 320 319 320 320 320 320 324 326 330 332 332 330 327 328 331 332 333 328 329 330 328 333 335 332 328 328 330 331 334 337 337 337 339 341 343 351 345 336
319 323 323 321 321 322 319 319 320 320 319 320 321 321 325 329 334 335 334 330 330 330 332 337 333 330 334 336 334 337 334 332 333 330 331 334 342 340 339 345 342 333 338 348 339
318 323 324 326 321 321 320 321 320 320 319 320 322 322 327 332 336 337 336 333 328 324 331 336 332 332 331 331 334 333 333 330 331 332 332 342 342 340 344 349 345 338 349 351 351
319 324 322 323 322 321 320 322 325 322 320 319 323 325 325 330 335 337 333 333 330 327 333 330 331 329 330 328 328 330 330 331 330 336 339 343 342 337 340 347 349 349 351 350 345
316 318 322 324 324 324 321 324 326 322 322 320 323 324 326 329 334 332 332 333 332 333 337 333 333 331 332 330 328 329 337 340 342 340 341 344 340 337 339 347 349 349 348 348 346
Wind_Speed
15 15 18 20 21 23 25 28 30 31 30 30 29 29 28 26 24 12 6 8 6 8 6 4 7 13 19 6 7 6 3 13 20 5 27 10 16 10 9 10 8 3 12 25 29
17 17 18 20 23 24 26 28 30 32 31 31 29 28 26 25 20 12 12 10 10 12 9 9 8 11 4 4 5 6 4 14 11 16 7 9 15 13 12 17 14 15 22 26 28
17 17 19 21 22 24 26 28 30 31 31 30 29 26 24 21 5 4 7 15 11 11 12 16 17 7 7 6 8 9 12 17 17 6 8 10 9 10 17 12 18 21 20 17 15
18 19 20 22 24 25 27 28 30 31 31 30 28 24 23 6 3 1 6 10 11 11 10 8 8 5 6 7 9 8 16 15 8 6 5 8 9 12 14 12 21 20 20 15 11
19 20 20 22 24 27 28 29 30 31 31 29 26 21 10 3 9 7 8 10 11 12 8 7 6 4 6 7 9 9 13 11 9 7 6 5 6 10 16 17 20 19 17 13 9
19 20 21 22 24 27 29 30 31 31 31 28 23 16 3 6 12 10 10 12 12 10 9 11 7 7 7 9 5 11 14 13 9 7 5 2 9 8 15 17 17 19 15 12 9
20 20 21 22 25 27 30 31 33 32 31 27 17 9 5 14 8 12 11 12 14 14 9 21 21 5 5 10 10 10 10 14 9 6 4 6 7 9 9 16 14 14 14 12 10
21 21 21 22 24 27 30 33 34 35 34 19 12 2 7 16 14 15 14 12 13 21 24 22 19 7 4 8 9 9 6 4 9 9 7 8 4 19 14 11 10 12 12 14 10
22 21 22 22 24 27 31 33 35 37 26 12 5 5 8 10 11 20 20 19 21 21 18 17 8 3 7 5 6 5 6 8 10 12 9 7 7 13 11 17 11 10 13 14 12
22 22 21 23 24 26 31 33 32 20 1 3 7 5 8 10 16 18 19 21 7 5 6 3 4 1 5 0 6 8 5 8 9 17 12 8 6 12 10 10 3 6 15 14 15
21 21 21 22 24 26 33 21 6 2 2 9 5 7 23 17 21 13 18 12 5 6 6 6 3 7 12 11 12 9 7 10 15 17 4 10 7 17 11 13 12 20 17 16 18
21 20 20 22 24 26 28 4 3 9 11 12 19 21 32 24 3 7 17 8 7 7 8 4 11 14 16 14 15 14 10 10 11 11 2 6 7 19 21 23 30 31 19 19 16
21 20 19 21 24 24 15 23 12 14 5 16 19 13 14 14 14 11 10 10 7 8 9 9 12 16 16 13 12 12 7 6 6 9 7 3 2 4 11 10 19 20 21 18 21
21 19 18 18 15 13 13 10 10 11 3 8 9 9 12 12 8 10 21 10 6 12 11 10 16 14 15 10 0 4 5 8 8 6 4 3 5 5 5 11 18 3 14 21 21
21 19 17 14 18 9 12 16 10 3 4 8 12 12 11 15 5 15 19 9 15 15 7 13 9 10 6 4 4 7 7 5 6 6 3 8 2 7 7 8 8 18 18 14 19
22 19 17 14 19 29 23 23 10 1 7 5 8 11 10 12 19 6 9 8 9 14 14 10 6 4 5 5 5 6 4 8 5 3 5 8 5 6 7 8 6 7 11 18 13
23 20 19 15 7 11 21 7 2 5 9 16 12 14 12 9 17 15 13 11 10 5 6 9 6 4 1 5 6 5 5 3 4 3 6 10 3 12 10 13 10 10 12 10 6
22 20 23 31 29 17 17 1 6 11 15 4 12 18 14 12 14 14 10 7 10 8 5 6 5 9 9 8 8 8 8 5 4 3 5 7 6 12 18 18 10 8 7 0 7
18 20 18 33 27 20 5 6 7 8 6 9 9 16 11 14 9 17 12 10 13 9 6 3 5 14 13 5 6 8 4 12 4 5 1 4 9 4 11 9 8 6 5 7 2
12 7 25 27 23 18 5 11 10 14 17 20 7 7 10 16 11 7 10 10 11 13 7 5 5 2 6 5 3 5 4 4 3 4 3 6 4 1 15 11 7 12 11 10 9
9 3 17 28 22 7 10 10 11 19 21 9 10 8 6 2 16 9 10 10 17 14 11 7 3 7 4 3 6 3 5 2 3 4 2 2 2 5 9 9 18 20 16 18 15
5 4 16 30 10 9 12 15 15 19 18 9 5 5 7 10 5 9 11 11 12 6 8 3 4 2 4 6 9 7 6 4 5 5 1 3 4 12 14 14 16 15 15 17 15
3 6 17 30 11 10 12 20 21 20 20 4 5 5 7 6 4 2 6 8 11 7 4 3 2 3 9 7 8 4 9 1 3 4 2 2 3 9 15 11 9 11 12 9 7
3 3 2 9 9 14 14 16 18 20 19 7 6 7 8 8 4 5 7 5 12 7 4 6 3 5 4 2 4 3 8 8 5 3 2 2 5 14 17 15 11 10 7 9 9
2 4 3 5 13 13 9 8 17 16 4 4 7 7 6 1 4 3 3 4 9 2 3 4 3 2 2 5 7 5 4 9 3 1 3 5 9 11 14 14 6 4 8 11 11
3 3 4 6 7 11 10 11 15 13 9 10 6 6 7 5 1 9 6 5 4 2 4 3 1 4 6 6 8 5 9 9 12 11 14 11 7 9 13 15 16 10 8 9 9
4 9 3 4 5 7 11 11 11 9 8 11 8 4 7 3 9 11 8 4 4 3 3 4 2 3 2 6 8 6 12 15 16 19 9 10 4 8 13 13 13 11 10 8 9
Wind_Direction
327 332 334 335 339 340 341 342 343 342 342 342 339 336 334 332 328 312 242 233 237 205 221 238 222 250 255 252 255 268 271 265 268 143 259 120 110 122 134 90 110 178 143 157 163
321 327 327 330 334 335 336 339 340 340 340 340 337 333 334 335 326 241 256 238 249 214 212 226 215 235 250 246 233 181 229 258 268 183 224 136 129 141 124 105 83 98 128 149 163
316 319 321 324 327 330 331 334 336 336 337 338 334 331 333 335 304 235 237 223 206 213 217 216 232 212 237 240 246 243 239 258 285 76 128 134 131 152 127 129 135 137 142 150 170
311 314 317 319 323 327 328 331 333 331 334 335 331 329 332 344 326 300 188 207 203 197 206 284 276 257 248 246 251 250 259 256 265 44 335 153 143 89 123 147 138 140 144 160 177
306 309 311 316 321 323 324 327 328 327 329 331 329 326 333 295 253 246 167 164 170 164 213 237 269 252 264 263 286 270 268 279 282 134 270 121 74 118 116 127 133 139 145 163 167
300 304 306 312 316 318 322 323 323 320 323 326 323 324 295 268 247 175 164 160 164 172 226 245 247 233 281 270 275 288 301 269 290 261 231 313 160 107 134 127 131 141 150 164 175
295 297 301 308 312 317 319 319 316 311 317 319 312 318 268 241 227 166 169 180 175 200 239 251 245 223 231 284 264 282 307 306 270 268 221 194 94 117 126 124 135 145 153 165 183
291 294 298 303 309 316 317 316 311 308 311 310 304 266 252 262 253 173 182 201 212 226 236 267 263 247 239 272 306 305 310 307 285 287 258 122 141 120 127 132 149 158 167 170 193
287 292 297 303 309 316 314 312 306 308 299 285 283 200 261 281 208 193 189 208 212 232 245 268 297 227 325 297 325 299 256 285 279 263 235 142 139 180 160 146 147 188 177 180 187
284 290 295 300 307 313 312 313 314 309 26 236 251 291 257 238 206 227 199 221 201 188 260 271 345 351 298 278 223 248 244 261 255 272 261 225 201 173 156 151 19 250 183 182 190
280 286 292 298 303 310 317 336 344 329 332 273 244 265 297 256 226 201 191 220 258 177 206 214 169 218 229 233 240 250 265 240 256 263 222 205 181 180 141 121 112 295 201 185 190
273 278 284 292 297 300 309 247 324 274 294 274 271 265 268 274 227 192 193 181 230 202 213 271 222 229 224 223 233 244 249 270 278 281 353 194 229 180 170 173 177 206 195 188 184
267 271 278 289 300 297 276 259 300 304 289 288 240 241 239 249 240 192 194 201 210 217 211 207 242 225 244 249 232 238 231 259 265 300 327 58 331 139 187 181 196 206 195 183 193
262 265 274 290 296 301 281 289 284 9 295 262 195 222 217 242 250 239 198 190 233 211 224 226 244 240 242 247 309 280 297 285 284 316 268 117 251 247 253 215 195 138 197 191 201
257 259 264 272 292 294 265 333 335 346 307 166 179 191 165 206 197 222 219 195 228 241 163 243 236 249 274 228 187 249 273 288 297 270 295 308 64 265 244 264 227 197 201 197 198
249 253 259 270 259 259 296 304 317 262 248 195 144 170 163 198 226 230 207 185 231 252 268 247 255 253 237 217 271 276 328 350 339 34 4 269 173 270 255 228 243 228 185 203 222
247 244 246 247 241 242 315 277 210 226 290 150 167 158 191 184 217 220 182 184 217 210 273 289 259 268 4 333 316 315 67 338 343 342 229 256 314 243 249 244 214 215 200 200 236
246 246 245 247 249 280 320 282 232 246 246 306 191 170 190 183 219 223 172 192 220 234 235 227 268 201 204 192 198 230 153 167 219 216 271 287 239 252 251 245 125 102 121 278 277
243 249 255 249 250 257 268 225 214 219 334 336 285 159 195 189 198 215 174 200 203 215 196 271 271 274 175 162 160 278 153 216 217 259 4 257 305 347 357 75 84 129 172 231 332
229 228 251 246 231 237 226 236 245 268 310 313 297 171 176 188 196 178 174 198 217 207 182 255 324 35 105 114 256 183 218 11 336 211 271 301 347 334 12 9 26 43 13 71 49
237 222 251 225 217 221 223 230 253 265 271 285 340 339 355 339 187 194 190 198 205 202 189 183 175 297 86 117 220 295 299 289 129 131 132 296 286 318 50 44 38 39 13 13 30
239 221 224 196 196 213 221 230 252 268 276 268 300 286 286 312 246 207 193 197 178 126 133 133 117 324 265 293 210 195 207 167 112 301 79 171 14 347 31 43 56 45 52 67 69
252 248 284 185 199 194 228 239 244 251 261 230 231 252 285 304 52 3 110 56 86 76 83 30 74 35 331 333 15 17 345 262 136 102 177 119 251 27 28 33 40 61 44 44 31
249 222 302 214 195 201 209 227 245 248 256 274 285 267 302 305 86 70 52 55 64 90 100 82 113 148 179 194 203 314 342 352 54 82 277 50 44 29 22 26 25 34 9 54 41
221 198 186 268 191 221 250 254 232 242 216 252 298 255 267 351 86 77 317 15 76 108 93 89 115 24 277 216 184 261 294 307 325 296 123 87 65 34 31 22 63 39 19 33 44
314 354 18 295 321 220 236 245 250 236 162 237 248 244 281 261 137 199 151 11 73 183 87 26 112 60 353 330 302 240 209 244 268 1 76 95 57 20 25 29 27 24 43 52 56
277 307 196 262 285 233 225 233 246 203 229 213 238 204 265 271 113 107 104 49 95 355 118 105 89 69 266 342 347 357 334 92 76 45 52 60 12 31 30 39 26 23 36 58 63